This is the latest recevied weather packets stored in our database for station/object KB4NWJ. If no packets are shown the sender has not sent any weather packets the latest 10 day(s).
| Time | Temp. | Humidity | Pressure | Rain* | Wind** | Luminosity | Snow |
|---|---|---|---|---|---|---|---|
| 1777666204 | 17.78° C | 72% | 1014.7 hPa | 0 mm | - | 187 W/m² | - |
| 1777665902 | 17.78° C | 72% | 1014.9 hPa | 0 mm | - | 189 W/m² | - |
| 1777665599 | 17.78° C | 71% | 1015 hPa | 0 mm | - | 197 W/m² | - |
| 1777665295 | 17.78° C | 70% | 1015.2 hPa | 0 mm | - | 187 W/m² | - |
| 1777664991 | 17.78° C | 72% | 1015.4 hPa | 0 mm | - | 150 W/m² | - |
| 1777664687 | 17.78° C | 73% | 1015.2 hPa | 0 mm | - | 128 W/m² | - |
| 1777664383 | 17.78° C | 70% | 1015.2 hPa | 0 mm | - | 137 W/m² | - |
| 1777664081 | 17.78° C | 73% | 1015.2 hPa | 0 mm | - | 148 W/m² | - |
| 1777663779 | 18.33° C | 73% | 1015.1 hPa | 0 mm | - | 151 W/m² | - |
| 1777663476 | 17.78° C | 71% | 1015 hPa | 0 mm | - | 168 W/m² | - |
| 1777663173 | 17.78° C | 71% | 1014.7 hPa | 0 mm | - | 168 W/m² | - |
| 1777662870 | 17.78° C | 70% | 1014.7 hPa | 0 mm | - | 161 W/m² | - |
| 1777662567 | 17.78° C | 72% | 1015 hPa | 0 mm | - | 161 W/m² | - |
| 1777662263 | 17.22° C | 71% | 1015.1 hPa | 0 mm | - | 212 W/m² | - |
| 1777661963 | 17.78° C | 69% | 1015.1 hPa | 0 mm | - | 197 W/m² | - |
| 1777661660 | 18.33° C | 69% | 1015.1 hPa | 0 mm | - | 235 W/m² | - |
| 1777661355 | 18.33° C | 69% | 1015 hPa | 0 mm | - | 271 W/m² | - |
| 1777661052 | 17.78° C | 71% | 1015.2 hPa | 0 mm | - | 262 W/m² | - |
| 1777660747 | 17.22° C | 71% | 1015.4 hPa | 0 mm | - | 242 W/m² | - |
| 1777660445 | 17.22° C | 74% | 1015.3 hPa | 0 mm | - | 213 W/m² | - |
| 1777660141 | 17.78° C | 73% | 1015.1 hPa | 0 mm | - | 186 W/m² | - |
| 1777659838 | 17.78° C | 76% | 1015 hPa | 0 mm | - | 267 W/m² | - |
| 1777659534 | 17.78° C | 74% | 1015.2 hPa | 0 mm | - | 347 W/m² | - |
| 1777659231 | 17.22° C | 73% | 1015.1 hPa | 0 mm | - | 264 W/m² | - |
| 1777658929 | 17.22° C | 74% | 1015.5 hPa | 0 mm | - | 227 W/m² | - |
* Rain latest hour (hover to see other rain measurements)
** Current wind speed in m/s (hover to see current wind gust speed)